Index of /wp-hr-content/uploads/2016/09/

NameLast ModifiedSize
UpParent Directory
[IMG]51614-Guam-1024x576.jpg2021-09-30 11:37 71k
[IMG]51614-Guam-1024x576.jpg.webp2021-09-30 11:37 43k
[IMG]51614-Guam-1080x608.jpg2021-09-30 11:37 78k
[IMG]51614-Guam-1080x608.jpg.webp2021-09-30 11:37 47k
[IMG]51614-Guam-1080x675.jpg2021-09-30 11:37 85k
[IMG]51614-Guam-1080x675.jpg.webp2021-09-30 11:37 50k
[IMG]51614-Guam-150x150.jpg2021-09-30 11:37 4k
[IMG]51614-Guam-150x150.jpg.webp2021-09-30 11:37 3k
[IMG]51614-Guam-300x169.jpg2021-09-30 11:37 8k
[IMG]51614-Guam-300x169.jpg.webp2021-09-30 11:37 5k
[IMG]51614-Guam-400x250.jpg2021-09-30 11:37 14k
[IMG]51614-Guam-400x250.jpg.webp2021-09-30 11:37 9k
[IMG]51614-Guam-400x284.jpg2021-09-30 11:37 15k
[IMG]51614-Guam-400x284.jpg.webp2021-09-30 11:37 10k
[IMG]51614-Guam-510x382.jpg2021-09-30 11:37 24k
[IMG]51614-Guam-510x382.jpg.webp2021-09-30 11:37 15k
[IMG]51614-Guam-768x432.jpg2021-09-30 11:37 42k
[IMG]51614-Guam-768x432.jpg.webp2021-09-30 11:37 26k
[IMG]51614-Guam.jpg2021-09-30 11:37 193k
[IMG]51614-Guam.jpg.webp2021-09-30 11:37 94k
[IMG]Coral-2-min-1024x646.jpg2017-10-28 15:36 510k
[IMG]Coral-2-min-1080x675.jpg2017-10-28 15:36 510k
[IMG]Coral-2-min-1080x681.jpg2017-10-28 15:36 510k
[IMG]Coral-2-min-150x150.jpg2017-10-28 15:36 510k
[IMG]Coral-2-min-300x189.jpg2017-10-28 15:36 510k
[IMG]Coral-2-min-400x250.jpg2017-10-28 15:36 510k
[IMG]Coral-2-min-400x284.jpg2017-10-28 15:36 510k
[IMG]Coral-2-min-510x382.jpg2021-09-30 11:52 41k
[IMG]Coral-2-min-510x382.jpg.webp2021-09-30 11:52 32k
[IMG]Coral-2-min-768x484.jpg2017-10-28 15:36 510k
[IMG]Coral-2-min.jpg2021-09-30 11:52 3108k
[IMG]Coral-2-min.jpg.webp2021-09-30 11:52 1354k
[IMG]DSC_0379-1024x683.jpg2017-10-28 15:36 223k
[IMG]DSC_0379-1080x675.jpg2017-10-28 15:36 236k
[IMG]DSC_0379-1080x720.jpg2017-10-28 15:36 246k
[IMG]DSC_0379-150x150.jpg2017-10-28 15:36 10k
[IMG]DSC_0379-300x200.jpg2021-09-30 11:50 18k
[IMG]DSC_0379-300x200.jpg.webp2021-09-30 11:50 16k
[IMG]DSC_0379-400x250.jpg2017-10-28 15:36 36k
[IMG]DSC_0379-400x284.jpg2017-10-28 15:36 40k
[IMG]DSC_0379-510x382.jpg2017-10-28 15:36 68k
[IMG]DSC_0379-768x512.jpg2017-10-28 15:36 128k
[IMG]DSC_0379.jpg2021-09-30 11:50 6813k
[IMG]DSC_0379.jpg.webp2021-09-30 11:50 2742k
[IMG]Event-Mangement-150x150.jpg2017-10-28 15:36 7k
[IMG]Event-Mangement-300x197.jpg2017-10-28 15:36 16k
[IMG]Event-Mangement-400x250.jpg2017-10-28 15:36 24k
[IMG]Event-Mangement-400x284.jpg2017-10-28 15:36 25k
[IMG]Event-Mangement-510x380.jpg2017-10-28 15:36 38k
[IMG]event1-1024x608.jpg2017-10-28 15:36 134k
[IMG]event1-150x150.jpg2017-10-28 15:36 0k
[IMG]event1-300x178.jpg2017-10-28 15:36 0k
[IMG]event1-768x456.jpg2017-10-28 15:36 0k
[IMG]GSWA-150x150.jpg2021-09-30 11:34 7k
[IMG]GSWA-150x150.jpg.webp2021-09-30 11:34 5k
[IMG]GSWA-300x250.jpg2021-09-30 11:34 18k
[IMG]GSWA-300x250.jpg.webp2021-09-30 11:34 11k
[IMG]GSWA-300x284.jpg2021-09-30 11:34 20k
[IMG]GSWA-300x284.jpg.webp2021-09-30 11:34 13k
[IMG]GSWA-300x298.jpg2021-09-30 11:34 20k
[IMG]GSWA-300x298.jpg.webp2021-09-30 11:34 12k
[IMG]GSWA.jpg2021-09-30 11:34 18k
[IMG]GSWA.jpg.webp2021-09-30 11:34 13k
[IMG]guam-beach-1024x552.jpg2021-09-30 11:36 54k
[IMG]guam-beach-1024x552.jpg.webp2021-09-30 11:36 31k
[IMG]guam-beach-1080x582.jpg2021-09-30 11:36 59k
[IMG]guam-beach-1080x582.jpg.webp2021-09-30 11:36 34k
[IMG]guam-beach-1080x675.jpg2021-09-30 11:36 66k
[IMG]guam-beach-1080x675.jpg.webp2021-09-30 11:36 37k
[IMG]guam-beach-150x150.jpg2021-09-30 11:36 4k
[IMG]guam-beach-150x150.jpg.webp2021-09-30 11:36 3k
[IMG]guam-beach-300x162.jpg2021-09-30 11:36 8k
[IMG]guam-beach-300x162.jpg.webp2021-09-30 11:36 5k
[IMG]guam-beach-400x250.jpg2021-09-30 11:36 13k
[IMG]guam-beach-400x250.jpg.webp2021-09-30 11:36 8k
[IMG]guam-beach-400x284.jpg2021-09-30 11:36 15k
[IMG]guam-beach-400x284.jpg.webp2021-09-30 11:36 9k
[IMG]guam-beach-510x382.jpg2021-09-30 11:37 22k
[IMG]guam-beach-510x382.jpg.webp2021-09-30 11:37 13k
[IMG]guam-beach-768x414.jpg2021-09-30 11:36 34k
[IMG]guam-beach-768x414.jpg.webp2021-09-30 11:36 20k
[IMG]guam-beach.jpg2021-09-30 11:36 135k
[IMG]guam-beach.jpg.webp2021-09-30 11:36 69k
[IMG]image1470.jpg2021-09-30 11:52 6k
[IMG]image1470.jpg.webp2021-09-30 11:52 5k
[IMG]images-1-150x150.jpg2021-09-30 11:50 6k
[IMG]images-1-150x150.jpg.webp2021-09-30 11:50 4k
[IMG]images-1.jpg2021-09-30 11:50 12k
[IMG]images-1.jpg.webp2021-09-30 11:50 8k
[IMG]loader.gif2017-10-28 15:36 25k
[IMG]Logo-150x150.png2017-10-28 15:36 510k
[IMG]Logo.png2021-09-30 11:52 45k
[IMG]Logo.png.webp2021-09-30 11:52 8k
Proudly Served by LiteSpeed Web Server at hr.doa.guam.gov Port 443